Find Intasat

NORAD ID: 7531 Int'l Des: 1974-089 Owner: INTA Country: E operational
LEOCIRCULARRETROGRADESSO

Live Position

Loading 3D Globe...

About Intasat

Description loading...

Upcoming Passes

Passes for default location (London). Set your location on the main map for personalized predictions.

Altitude History

Loading altitude history...

Two-Line Element Set

1 07531U 74089C 26107.01848374 -.00000036 00000-0 68401-4 0 9998
2 07531 101.9974 118.7483 0010926 258.3893 126.1083 12.53528801352610
Epoch: Apr 17, 2026 • Age: 13 hours

Current Status

Altitude 1461.3 km
Velocity 7.13 km/s
Sub-Earth Point -50.21°S, 116.67°W
Type other

Most Searched